George, South Africa

7:06 AM SAST on February 07, 2016 (GMT +0200)
George

Weather History for FAGG - September, 2012

Change the Weather History Date:

Saturday, September 15, 2012

  Actual Average Record
Temperature  
Mean Temperature 57 °F -  
Max Temperature 68 °F 66 °F 75 °F (2013)
Min Temperature 46 °F 48 °F 42 °F (2000)
Degree Days  
Heating Degree Days 8    
Growing Degree Days 7 (Base 50)    
Moisture  
Dew Point 48 °F    
Average Humidity 67    
Maximum Humidity 87    
Minimum Humidity 43    
Precipitation  
Precipitation 0.00 in - - ()
Sea Level Pressure  
Sea Level Pressure 30.29 in    
Wind  
Wind Speed 7 mph ()    
Max Wind Speed 17 mph    
Max Gust Speed -    
Visibility 15.0 miles    
Events      
Averages and records for this station are not official NWS values.
T = Trace of Precipitation, MM = Missing Value Source: Averaged Metar Reports

Daily Weather History Graph

Daily Weather History Graph

Search for Another Location

Airport or City:

Trip Planner

Search our weather history database for the weather conditions in past years. The results will help you decide how hot, cold, wet, or windy it might be!

Date:

Astronomy

Sep. 15, 2012 Rise Set
Actual Time 6:29 AM SAST 6:22 PM SAST
Civil Twilight 6:04 AM SAST 6:47 PM SAST
Nautical Twilight 5:35 AM SAST 7:16 PM SAST
Astronomical Twilight 5:06 AM SAST 7:45 PM SAST
Moon 5:41 AM SAST (9/15) 5:54 PM SAST (9/15)
Length of Visible Light 12h 42m
Length of Day
11h 52m
Waning Crescent, 1% of the Moon is Illuminated
Sep 15
Waning Crescent
Sep 16
New
Sep 22
First Quarter
Sep 30
Full
Oct 8
Last Quarter

Hourly Weather History & Observations

Time (SAST) Temp. Dew Point Humidity Pressure Visibility Wind Dir Wind Speed Gust Speed Precip Events Conditions
12:00 AM 53.6 °F 46.4 °F 77% 30.36 in - East 12.7 mph - N/A   Clear
1:00 AM 50.0 °F 44.6 °F 82% 30.39 in - East 5.8 mph - N/A   Clear
2:00 AM 51 °F 44 °F 70% 30.40 in 19 mi East 8.1 mph - -  
2:00 AM 51.8 °F 44.6 °F 76% 30.39 in - East 8.1 mph - N/A   Clear
3:00 AM 48.2 °F 42.8 °F 82% 30.39 in - ENE 4.6 mph - N/A   Clear
4:00 AM 48.2 °F 42.8 °F 82% 30.36 in - NE 5.8 mph - N/A   Clear
5:00 AM 49 °F 43 °F 72% 30.35 in 12 mi NE 5.8 mph - -  
5:00 AM 50.0 °F 42.8 °F 76% 30.33 in - ENE 5.8 mph - N/A   Clear
6:00 AM 50.0 °F 41.0 °F 71% 30.33 in - East 9.2 mph - N/A   Clear
7:00 AM 51.8 °F 41.0 °F 67% 30.36 in - ENE 3.5 mph - N/A   Clear
8:00 AM 55 °F 44 °F 57% 30.38 in 19 mi Calm Calm - -  
8:00 AM 57.2 °F 44.6 °F 63% 30.39 in - Calm Calm - N/A   Clear
9:00 AM 60.8 °F 46.4 °F 59% 30.36 in - East 5.8 mph - N/A   Clear
10:00 AM 64.4 °F 46.4 °F 52% 30.33 in - ENE 6.9 mph - N/A   Clear
11:00 AM 66 °F 49 °F 43% 30.31 in 19 mi ESE 9.2 mph - -  
11:00 AM 68.0 °F 48.2 °F 49% 30.30 in - ESE 9.2 mph - N/A   Clear
12:00 PM 68.0 °F 51.8 °F 56% 30.30 in - ESE 12.7 mph - N/A   Clear
1:00 PM 68.0 °F 51.8 °F 56% 30.27 in - ESE 15.0 mph - N/A   Clear
2:00 PM 67 °F 51 °F 47% 30.25 in 12 mi ESE 16.1 mph - -  
2:00 PM 68.0 °F 50.0 °F 52% 30.24 in - ESE 16.1 mph - N/A   Clear
3:00 PM 68.0 °F 51.8 °F 56% 30.24 in - ESE 16.1 mph - N/A   Clear
4:00 PM 66.2 °F 51.8 °F 60% 30.21 in - ESE 17.3 mph - N/A   Clear
5:00 PM 66 °F 54 °F 56% 30.20 in 12 mi ESE 11.5 mph - -   Clear
5:00 PM 66.2 °F 53.6 °F 64% 30.21 in - ESE 11.5 mph - N/A   Clear
6:00 PM 62.6 °F 53.6 °F 72% 30.18 in - East 9.2 mph - N/A   Clear
7:00 PM 59.0 °F 53.6 °F 82% 30.18 in - ESE 4.6 mph - N/A   Clear
8:00 PM 57 °F 52 °F 78% 30.19 in 12 mi 3.5 mph - -  
8:00 PM 57.2 °F 51.8 °F 82% 30.18 in - NW 3.5 mph - N/A   Clear
9:00 PM 55.4 °F 50.0 °F 82% 30.18 in - NNW 4.6 mph - N/A   Clear
10:00 PM 53.6 °F 48.2 °F 82% 30.15 in - North 3.5 mph - N/A   Clear
11:00 PM 50.0 °F 46.4 °F 87% 30.15 in - WNW 4.6 mph - N/A   Clear